Location: Haulchin
(50.3172°N, 3.4360°E)
Time: 20:56:06
(UTC+00:00)

Cosmos 2333 Rocket - Pass Details

Date: 17 August 2024
Orbit: 838 x 863 km, 70.8° (Epoch: 09 September)

Event Time Altitude Azimuth Distance (km) Brightness Sun altitude
Exits shadow 01:38:34 10° 277° (W) 2,507 4.4 -22.1°
Reaches altitude 10° 01:38:35 10° 277° (W) 2,504 4.4 -22.1°
Maximum altitude 01:42:48 21° 325° (NW) 1,874 4.2 -21.8°
Drops below altitude 10° 01:47:03 10° 12° (NNE) 2,515 5.7 -21.4°
Sets 01:50:12 0° 29° (NNE) 3,455 7.0 -21.2°
